Regional Weather Roundup
Issued by NWS

Home | Current Version | Previous Version | Graphics & Text | Print | Product List | Glossary On
Versions: 1 2 3 4 5 6 7 8 9 10 11 12 13 14 15 16 17 18 19 20 21 22 23 24 25 26 27 28 29 30 31 32 33 34 35 36 37 38 39 40 41 42 43 44 45 46 47 48 49 50
000
ASUS44 KMEG 181610
RWRTN
TENNESSEE HOURLY STATE WEATHER ROUNDUP
NATIONAL WEATHER SERVICE MEMPHIS TN
1100 AM CDT FRI APR 18 2014

TNZ002-004-019-021-049-052-054-088>092-181700-
WEST TENNESSEE

CITY           SKY/WX    TMP DP  RH WIND       PRES   REMARKS
MEMPHIS INTL   PTSUNNY   69  51  52 CALM      30.25S
NWS MEMPHIS      N/A     67 N/A N/A MISG        N/A
JACKSON        MOSUNNY   65  49  56 SE7       30.27S
DYERSBURG      CLOUDY    63  45  51 CALM      30.29S
UNION CITY     SUNNY     66  50  55 CALM      30.27S
PARIS          PTSUNNY   63  47  55 CALM      30.29S
LEXINGTON      CLOUDY    63  46  55 SE7       30.28S
$$

TNZ008-025-027-028-033-062-065-066-181700-
NORTH MIDDLE TENNESSEE

CITY           SKY/WX    TMP DP  RH WIND       PRES   REMARKS
NASHVILLE      CLOUDY    62  41  46 SE3       30.31S
DICKSON        CLOUDY    63  41  45 SE8       30.29R
PORTLAND         N/A     63  43  48 S6        30.30
CLARKSVILLE    PTSUNNY   65  47  52 CALM      30.30S
SMYRNA         CLOUDY    63  39  41 CALM      30.31F
MURFREESBORO   CLOUDY    62  40  44 CALM      30.30S
COOKEVILLE     SUNNY     61  37  41 CALM      30.31F
LIVINGSTON     CLOUDY    59  37  43 VRB3      30.33
GALLATIN       CLOUDY    62  42  47 S3        30.32S
CROSSVILLE     CLOUDY    57  34  41 VRB5      30.33F
$$

TNZ061-075-076-078-094-096-097-181700-
SOUTH MIDDLE TENNESSEE

CITY           SKY/WX    TMP DP  RH WIND       PRES   REMARKS
LEWISBURG      CLOUDY    61  41  47 SE3       30.29S
FAYETTEVILLE   CLOUDY    58  40  51 SE8       30.29S
TULLAHOMA      SUNNY     59  37  44 SE6       30.30F
WINCHESTER     SUNNY     59  39  47 SE9       30.30S
MCMINNVILLE    SUNNY     61  39  44 E5        30.31S
COLUMBIA       MOSUNNY   63  50  63 CALM      30.28S
SHELBYVILLE    CLOUDY    61  43  51 SE5       30.31S
$$

TNZ017-018-042-046-047-181700-
NORTHEAST TENNESSEE

CITY           SKY/WX    TMP DP  RH WIND       PRES   REMARKS
TRI CITIES     CLOUDY    54  30  40 N5        30.37S
ELIZABETHTON   SUNNY     52  30  43 CALM      30.37R
$$

TNZ012-013-036-069-073-074-181700-
CENTRAL EAST TENNESSEE

CITY           SKY/WX    TMP DP  RH WIND       PRES   REMARKS
KNOXVILLE      CLOUDY    56  37  49 N7        30.33F
OAK RIDGE      CLOUDY    57  35  43 E3        30.36S
$$

TNZ083-085-099-181700-
SOUTHEAST TENNESSEE

CITY           SKY/WX    TMP DP  RH WIND       PRES   REMARKS
CHATTANOOGA    CLOUDY    59  41  51 NE5       30.32F
$$

SKY/WX REPORTED AS FAIR MEANS FEW OR NO CLOUDS BELOW
12 THOUSAND FEET.




USA.gov is the U.S. government's official web portal to all federal, state and local government web resources and services.